[ hide orbit diagram ]
For accurate long-term ephemerides, please instead use our Horizons system.This orbit viewer was implemented using two-body methods, and hence should not be used for determining accurate long-term trajectories (over several years or decades) or planetary encounter circumstances.
Orbital Elements at Epoch 2459200.5 (2020-Dec-17.0) TDB
Reference: JPL 34 (heliocentric ecliptic J2000)
Element | Value | Uncertainty (1-sigma) | Units |
e | .1489552279330875 | 3.8331e-08 | |
a | 2.574827993698559 | 7.8697e-09 | au |
q | 2.191293903008695 | 9.9259e-08 | au |
i | 8.44226928908366 | 4.5448e-06 | deg |
node | 324.1508074669641 | 3.1428e-05 | deg |
peri | 106.2192232848342 | 3.6e-05 | deg |
M | 233.7972476718858 | 1.7788e-05 | deg |
tp | 2459729.538265455679 (2022-May-30.03826546) | 7.5478e-05 | TDB |
period | 1509.109524560003 4.13 | 6.9186e-06 1.894e-08 | d yr |
n | .2385512742058677 | 1.0937e-09 | deg/d |
Q | 2.958362084388422 | 9.0419e-09 | au |
|
| | Orbit Determination Parameters
Additional Information
|
[ show covariance matrix ]
Physical Parameter Table
Parameter |
Symbol |
Value |
Units |
Sigma |
Reference |
Notes |
absolute magnitude |
H |
11.12 |
|
n/a |
E2021B10 |
IRAS observations used: 7 |
diameter |
diameter |
35.676 |
km |
0.450 |
urn:nasa:pds:neowise_diameters_albedos::2.0[mainbelt] (http://adsabs.harvard.edu/abs/2012ApJ...759L...8M) |
|
rotation period |
rot_per |
22.181 |
h |
n/a |
LCDB (Rev. 2020-October); Warner et al., 2009 |
Published Reference List: [Behrend, R. (2005) Observatoire de Geneve web site, http://obswww.unige.ch/~behrend/page_cou.html] [Polakis, T. (2018) Minor Planet Bull. 45, 112-115.] |
geometric albedo |
albedo |
0.031 |
|
0.005 |
urn:nasa:pds:neowise_diameters_albedos::2.0[mainbelt] (http://adsabs.harvard.edu/abs/2011ApJ...741...68M) |
|
B-V |
BV |
0.677 |
|
0.034 |
EAR-A-5-DDR-UBV-MEAN-VALUES-V1.2 |
#obs=2; phase (min.=6.92, mean=7.06, max.=7.20) deg. |
U-B |
UB |
0.368 |
|
0.049 |
EAR-A-5-DDR-UBV-MEAN-VALUES-V1.2 |
#obs=2; phase (min.=6.92, mean=7.06, max.=7.20) deg. |
Tholen spectral type |
spec_T |
C |
|
n/a |
EAR-A-5-DDR-TAXONOMY-V4.0 |
used 2 color indices |
|
1639 Bower (1951 RB) Discovered 1951-Sep-12 by Arend, S. at Uccle |
Reference: DISCOVERY.DB | Last Updated: 2003-08-29 |
|
[ show close-approach data ]
Alternate Designations
1951 RB = 1934 PT = 1936 AC = 1939 XH = 1942 NA = 1951 RV1 = 1951 TE = 1953 DK = 1953 EU1 = 1953 GV = 1957 BJ1 = A906 YD = A924 EN |
|
|